Location: Castellar de la Frontera
(36.3200°N, 5.4500°W)
Time: 01:12:08
(UTC+02:00)

ISS - Pass Details

Date: 20 July 2018
Orbit: 402 x 408 km, 51.6° (Epoch: 18 July)

Event Time Altitude Azimuth Distance (km) Brightness Sun altitude
Rises 23:40:35 0° 254° (WSW) 2,307 0.4 -20.7°
Reaches altitude 10° 23:42:52 10° 268° (W) 1,452 -0.5 -21.0°
Maximum altitude 23:45:40 26° 327° (NNW) 837 -1.5 -21.4°
Drops below altitude 10° 23:48:29 10° 27° (NNE) 1,460 -0.8 -21.8°
Sets 23:50:47 0° 40° (NE) 2,324 0.1 -22.1°
